sat.trackr.live / text

‹ back to catalog

ONEWEB-0289

NORAD 49079 · 2021-075E

PAYLOAD ACTIVE UNKNOWN

§ Identity

Operator
Country
UK
Launch date
2021-08-21
Launch site
TYMSC
Launch vehicle
Mass (kg)
RCS (m²)

Purposes: comms

External: N2YO · Heavens-Above · Gunter

§ Orbital elements

Epoch: 2026-09-20T01:11:37.178304Z

Period
109.29 min
Inclination
87.9191°
Eccentricity
0.0001455
Mean motion
13.17650137 rev/d
Perigee alt
1,192.6 km
Apogee alt
1,194.8 km
Semi-major
7,571.8 km
B*
5.7869e-5
RAAN
347.0444°
Arg perigee
98.7920°
Mean anomaly
261.3376°
Rev number
24,669

§ Raw data

ONEWEB-02891 49079U 21075E   26263.04973586  .00000035  00000+0  57869-4 0  99912 49079  87.9191 347.0444 0001455  98.7920 261.3376 13.17650137246691

JSON: /api/v1/satellites/49079 · /tle

For live sub-satellite position, see the globe view (requires WebGL).

§ Visibility from observer

Set your observer location to see the next 7 days of passes ≥ 10°. The values pass through the URL so the page stays shareable.

No JS? Fill the form by hand. The geolocation button needs JavaScript.